Weather History for Wrangell, AK

Change the Weather History Date:

Tuesday, March 11, 2014

  Actual Average Record
Temperature  
Mean Temperature 42 °F -  
Max Temperature 46 °F 42 °F 56 °F (1981)
Min Temperature 39 °F 30 °F 11 °F (1956)
Degree Days  
Heating Degree Days 22    
Moisture  
Dew Point 36 °F    
Average Humidity 78    
Maximum Humidity 81    
Minimum Humidity 75    
Precipitation  
Precipitation 2.95 in - - ()
Sea Level Pressure  
Sea Level Pressure 29.87 in    
Wind  
Wind Speed 18 mph (SE)    
Max Wind Speed 24 mph    
Max Gust Speed 34 mph    
Visibility 7 miles    
Events      
Averages and records for this station are not official NWS values.
T = Trace of Precipitation, MM = Missing Value Source: NWS Daily Summary

Daily Weather History Graph

Daily Weather History Graph

Search for Another Location

Airport:

Trip Planner

Search our weather history database for the weather conditions in past years. The results will help you decide how hot, cold, wet, or windy it might be!

Date:

Astronomy

Mar. 11, 2014 Rise Set
Actual Time 7:15 AM AKDT 6:44 PM AKDT
Civil Twilight 6:37 AM AKDT 7:22 PM AKDT
Nautical Twilight 5:53 AM AKDT 8:06 PM AKDT
Astronomical Twilight 5:08 AM AKDT 8:51 PM AKDT
Moon 1:48 PM AKDT (3/11) 4:54 AM AKDT (3/11)
Length of Visible Light 12h 44m
Length of Day
11h 29m
Waxing Gibbous, 79% of the Moon is Illuminated
Mar 11
Waxing Gibbous
Mar 16
Full
Mar 23
Last Quarter
Mar 30
New
Apr 7
First Quarter

Hourly Weather History & Observations

Time (AKDT) Temp. Windchill Dew Point Humidity Pressure Visibility Wind Dir Wind Speed Gust Speed Precip Events Conditions
12:16 AM 39.2 °F 30.5 °F 32.0 °F 75% 30.04 in 7.0 mi ESE 16.1 mph 26.5 mph 0.03 in   Overcast
12:36 AM 39.2 °F 29.3 °F 32.0 °F 75% 30.02 in 7.0 mi ESE 20.7 mph 28.8 mph 0.05 in   Overcast
12:56 AM 39.2 °F 29.6 °F 32.0 °F 75% 30.02 in 7.0 mi ESE 19.6 mph 27.6 mph 0.06 in   Overcast
1:16 AM 39.2 °F 29.6 °F 33.8 °F 81% 30.01 in 6.0 mi ESE 19.6 mph 29.9 mph 0.02 in   Overcast
1:36 AM 39.2 °F 29.3 °F 32.0 °F 75% 30.01 in 6.0 mi ESE 20.7 mph 28.8 mph 0.03 in   Overcast
1:56 AM 39.2 °F 29.6 °F 32.0 °F 75% 30.01 in 7.0 mi ESE 19.6 mph 31.1 mph 0.05 in   Overcast
2:16 AM 39.2 °F 29.6 °F 32.0 °F 75% 30.01 in 7.0 mi ESE 19.6 mph 27.6 mph 0.02 in   Overcast
2:36 AM 39.2 °F 29.8 °F 32.0 °F 75% 30.00 in 5.0 mi ESE 18.4 mph 27.6 mph 0.05 in   Overcast
2:56 AM 39.2 °F 30.2 °F 33.8 °F 81% 30.00 in 6.0 mi ESE 17.3 mph 29.9 mph 0.08 in   Overcast
3:16 AM 39.2 °F 29.8 °F 32.0 °F 75% 29.98 in 7.0 mi ESE 18.4 mph 25.3 mph 0.03 in   Overcast
3:36 AM 39.2 °F 29.6 °F 32.0 °F 75% 29.97 in 8.0 mi ESE 19.6 mph 26.5 mph 0.05 in   Overcast
3:56 AM 39.2 °F 29.0 °F 32.0 °F 75% 29.97 in 5.0 mi ESE 21.9 mph 28.8 mph 0.07 in   Overcast
4:16 AM 39.2 °F 30.5 °F 32.0 °F 75% 29.97 in 6.0 mi ESE 16.1 mph 25.3 mph 0.04 in   Overcast
4:36 AM 39.2 °F 29.6 °F 32.0 °F 75% 29.95 in 6.0 mi ESE 19.6 mph 27.6 mph 0.07 in   Overcast
4:56 AM 39.2 °F 29.0 °F 33.8 °F 81% 29.93 in 7.0 mi ESE 21.9 mph 26.5 mph 0.10 in   Overcast
5:16 AM 39.2 °F 29.0 °F 32.0 °F 75% 29.92 in 7.0 mi ESE 21.9 mph 31.1 mph 0.02 in   Overcast
5:36 AM 39.2 °F 28.7 °F 32.0 °F 75% 29.91 in 7.0 mi ESE 23.0 mph 31.1 mph 0.03 in   Overcast
5:56 AM 39.2 °F 29.8 °F 32.0 °F 75% 29.92 in 7.0 mi ESE 18.4 mph 29.9 mph 0.05 in   Overcast
6:16 AM 39.2 °F 29.6 °F 32.0 °F 75% 29.90 in 7.0 mi ESE 19.6 mph 27.6 mph 0.02 in   Overcast
6:36 AM 39.2 °F 29.3 °F 33.8 °F 81% 29.88 in 7.0 mi ESE 20.7 mph 32.2 mph 0.03 in   Overcast
6:56 AM 39.2 °F 29.0 °F 33.8 °F 81% 29.88 in 7.0 mi ESE 21.9 mph 28.8 mph 0.05 in   Overcast
7:16 AM 39.2 °F 29.3 °F 33.8 °F 81% 29.88 in 7.0 mi ESE 20.7 mph 29.9 mph 0.03 in   Overcast
7:36 AM 39.2 °F 29.0 °F 33.8 °F 81% 29.87 in 7.0 mi ESE 21.9 mph 31.1 mph 0.05 in   Overcast
7:56 AM 39.2 °F 28.7 °F 33.8 °F 81% 29.86 in 7.0 mi ESE 23.0 mph 34.5 mph 0.06 in   Overcast
8:16 AM 39.2 °F 29.0 °F 33.8 °F 81% 29.86 in 7.0 mi ESE 21.9 mph 32.2 mph 0.04 in   Overcast
8:36 AM 41.0 °F 31.1 °F 33.8 °F 76% 29.86 in 7.0 mi ESE 23.0 mph 31.1 mph 0.09 in   Overcast
8:56 AM 41.0 °F 31.4 °F 33.8 °F 76% 29.86 in 7.0 mi ESE 21.9 mph 33.4 mph 0.11 in   Overcast
9:16 AM 41.0 °F 31.6 °F 33.8 °F 76% 29.87 in 7.0 mi ESE 20.7 mph 32.2 mph 0.05 in   Overcast
9:36 AM 41.0 °F 31.4 °F 33.8 °F 76% 29.87 in 7.0 mi ESE 21.9 mph 31.1 mph 0.11 in   Overcast
9:56 AM 41.0 °F 31.1 °F 35.6 °F 81% 29.86 in 7.0 mi ESE 23.0 mph 29.9 mph 0.18 in   Overcast
10:16 AM 41.0 °F 30.9 °F 35.6 °F 81% 29.86 in 7.0 mi ESE 24.2 mph 31.1 mph 0.08 in   Overcast
10:36 AM 41.0 °F 30.9 °F 35.6 °F 81% 29.85 in 7.0 mi ESE 24.2 mph 31.1 mph 0.16 in   Overcast
10:56 AM 42.8 °F 33.8 °F 35.6 °F 76% 29.86 in 7.0 mi ESE 21.9 mph 31.1 mph 0.21 in   Overcast
11:16 AM 42.8 °F 33.8 °F 35.6 °F 76% 29.86 in 7.0 mi ESE 21.9 mph 29.9 mph 0.06 in   Overcast
11:36 AM 42.8 °F 33.8 °F 35.6 °F 76% 29.85 in 7.0 mi ESE 21.9 mph 33.4 mph 0.06 in   Overcast
11:56 AM 42.8 °F 34.3 °F 35.6 °F 76% 29.86 in 7.0 mi ESE 19.6 mph 28.8 mph 0.07 in   Overcast
12:16 PM 42.8 °F 33.3 °F 37.4 °F 81% 29.86 in 7.0 mi ESE 24.2 mph 28.8 mph 0.04 in   Overcast
12:36 PM 42.8 °F 34.0 °F 37.4 °F 81% 29.86 in 7.0 mi ESE 20.7 mph 25.3 mph 0.10 in   Overcast
12:56 PM 42.8 °F 34.0 °F 37.4 °F 81% 29.85 in 7.0 mi ESE 20.7 mph 27.6 mph 0.15 in   Overcast
1:16 PM 42.8 °F 34.3 °F 37.4 °F 81% 29.85 in 7.0 mi ESE 19.6 mph 26.5 mph 0.07 in   Overcast
1:36 PM 44.6 °F 36.6 °F 37.4 °F 76% 29.85 in 7.0 mi ESE 19.6 mph 23.0 mph 0.13 in   Overcast
1:56 PM 44.6 °F 37.4 °F 37.4 °F 76% 29.85 in 7.0 mi ESE 16.1 mph 27.6 mph 0.20 in   Overcast
2:16 PM 44.6 °F 36.6 °F 37.4 °F 76% 29.84 in 7.0 mi ESE 19.6 mph 27.6 mph 0.05 in   Overcast
2:36 PM 44.6 °F 36.6 °F 39.2 °F 81% 29.84 in 7.0 mi ESE 19.6 mph 28.8 mph 0.10 in   Overcast
2:56 PM 44.6 °F 36.9 °F 39.2 °F 81% 29.83 in 7.0 mi ESE 18.4 mph 26.5 mph 0.15 in   Overcast
3:16 PM 44.6 °F 36.6 °F 39.2 °F 81% 29.83 in 7.0 mi ESE 19.6 mph 23.0 mph 0.05 in   Overcast
3:36 PM 44.6 °F 36.6 °F 39.2 °F 81% 29.82 in 7.0 mi ESE 19.6 mph 26.5 mph 0.10 in   Overcast
3:56 PM 44.6 °F 36.9 °F 39.2 °F 81% 29.81 in 7.0 mi ESE 18.4 mph 24.2 mph 0.16 in   Overcast
4:16 PM 44.6 °F 36.9 °F 39.2 °F 81% 29.81 in 7.0 mi ESE 18.4 mph 21.9 mph 0.07 in   Overcast
4:36 PM 44.6 °F 37.2 °F 39.2 °F 81% 29.81 in 7.0 mi ESE 17.3 mph - 0.13 in   Overcast
4:56 PM 44.6 °F 38.8 °F 39.2 °F 81% 29.81 in 7.0 mi SSE 11.5 mph 19.6 mph 0.19 in   Overcast
5:16 PM 44.6 °F 37.8 °F 39.2 °F 81% 29.80 in 7.0 mi SE 15.0 mph 21.9 mph 0.06 in   Overcast
5:36 PM 44.6 °F 40.2 °F 39.2 °F 81% 29.81 in 7.0 mi South 8.1 mph 16.1 mph 0.13 in   Overcast
5:56 PM 46.4 °F 41.5 °F 41.0 °F 81% 29.81 in 7.0 mi SSE 10.4 mph - 0.19 in   Overcast
6:16 PM 44.6 °F 39.7 °F 39.2 °F 81% 29.81 in 7.0 mi SSE 9.2 mph - 0.06 in   Overcast
6:36 PM 46.4 °F 42.4 °F 41.0 °F 81% 29.80 in 7.0 mi SSE 8.1 mph 17.3 mph 0.12 in   Overcast
6:56 PM 46.4 °F 41.9 °F 39.2 °F 76% 29.81 in 7.0 mi SSE 9.2 mph - 0.17 in   Overcast
7:16 PM 46.4 °F 41.9 °F 39.2 °F 76% 29.80 in 7.0 mi SE 9.2 mph 24.2 mph 0.07 in   Overcast
7:36 PM 46.4 °F 40.4 °F 39.2 °F 76% 29.81 in 7.0 mi SE 13.8 mph - 0.12 in   Overcast
7:56 PM 46.4 °F 42.9 °F 39.2 °F 76% 29.80 in 7.0 mi South 6.9 mph 18.4 mph 0.18 in   Overcast
8:16 PM 46.4 °F 40.7 °F 39.2 °F 76% 29.80 in 10.0 mi ESE 12.7 mph - 0.04 in   Overcast
8:36 PM 46.4 °F 41.1 °F 39.2 °F 76% 29.80 in 10.0 mi SE 11.5 mph - 0.09 in   Overcast
8:56 PM 46.4 °F 41.1 °F 39.2 °F 76% 29.80 in 10.0 mi SSE 11.5 mph 17.3 mph 0.13 in   Overcast
9:16 PM 46.4 °F 42.4 °F 39.2 °F 76% 29.80 in 10.0 mi SSE 8.1 mph 19.6 mph 0.06 in   Overcast
9:36 PM 44.6 °F 40.7 °F 39.2 °F 81% 29.80 in 10.0 mi SSE 6.9 mph - 0.10 in   Overcast
9:56 PM 46.4 °F 43.5 °F 39.2 °F 76% 29.80 in 10.0 mi ESE 5.8 mph - 0.13 in   Overcast
10:16 PM 46.4 °F 41.9 °F 39.2 °F 76% 29.80 in 10.0 mi SSE 9.2 mph - 0.04 in   Overcast
10:36 PM 46.4 °F 42.9 °F 39.2 °F 76% 29.80 in 9.0 mi South 6.9 mph - 0.07 in   Overcast
10:56 PM 44.6 °F 39.7 °F 39.2 °F 81% 29.79 in 9.0 mi ESE 9.2 mph - 0.11 in   Overcast
11:16 PM 44.6 °F 40.2 °F 37.4 °F 76% 29.79 in 10.0 mi South 8.1 mph - 0.03 in   Overcast
11:36 PM 44.6 °F 43.1 °F 37.4 °F 76% 29.78 in 8.0 mi South 3.5 mph - 0.07 in   Overcast
11:56 PM 44.6 °F 40.7 °F 37.4 °F 76% 29.77 in 7.0 mi SSE 6.9 mph 16.1 mph 0.10 in   Overcast